Location: St. Louis
(38.6270°N, 90.1994°W)
Time: 22:47:24
(UTC-05:00)

OPS 7613 P/L 1 - Pass Details

Date: 05 July 2022
Orbit: 887 x 911 km, 70.0° (Epoch: 16 August)

Event Time Altitude Azimuth Distance (km) Brightness Sun altitude
Rises 04:08:40 0° 343° (NNW) 3,507 11.8 -15.1°
Reaches altitude 10° 04:11:24 10° 353° (N) 2,561 11.2 -14.7°
Maximum altitude 04:16:46 35° 58° (ENE) 1,394 10.0 -14.0°
Drops below altitude 10° 04:22:06 10° 123° (ESE) 2,543 10.8 -13.3°
Sets 04:24:47 0° 132° (SE) 3,479 11.5 -12.9°
